LOT2EW LGAV-EPWA

Flight info

Callsign LOT2EW
Flight time N/A
Altitude 31000
Route KRO UT162 KOROS/N0454F340 DCT ATFIR DCT RESLA DCT NARKA DCT PERIT DCT KOJOT DCT RAZEC DCT LENOV DCT ORTEB DCT KONZI DCT LOGDA
Aircraft E195/M-SDE3GILORVW/S

Departure

Time 2026-05-06 13:50
Airport Athens Eleftherios Venizelos International Airport (LGAV)

Arrival

Time N/A
Airport Warsaw Chopin Airport (EPWA)
Time Latitude Longitude Altitude Speed Heading
2026-05-06 13:16 37.93052 23.94283 300 ft 0 kts 37°
2026-05-06 13:40 37.93046 23.94278 300 ft 4 kts 37°
2026-05-06 13:40 37.93024 23.94257 303 ft 4 kts 37°
2026-05-06 13:40 37.93003 23.94236 302 ft 4 kts 41°
2026-05-06 13:40 37.92986 23.94212 300 ft 4 kts 70°
2026-05-06 13:41 37.92985 23.94184 300 ft 2 kts 126°
2026-05-06 13:41 37.92986 23.94182 300 ft 1 kts 127°
2026-05-06 13:44 37.92984 23.94185 300 ft 2 kts 127°
2026-05-06 13:44 37.92957 23.94230 300 ft 11 kts 127°
2026-05-06 13:44 37.92890 23.94340 301 ft 20 kts 126°
2026-05-06 13:44 37.92827 23.94477 300 ft 16 kts 89°
2026-05-06 13:45 37.92903 23.94573 301 ft 17 kts 37°
2026-05-06 13:45 37.93171 23.94829 299 ft 31 kts 38°
2026-05-06 13:45 37.93358 23.95005 297 ft 33 kts 37°
2026-05-06 13:46 37.93540 23.95177 299 ft 33 kts 36°
2026-05-06 13:46 37.93726 23.95352 296 ft 33 kts 36°
2026-05-06 13:46 37.93903 23.95520 297 ft 31 kts 36°
2026-05-06 13:46 37.94057 23.95669 296 ft 27 kts 36°
2026-05-06 13:47 37.94207 23.95811 298 ft 27 kts 37°
2026-05-06 13:47 37.94355 23.95951 296 ft 26 kts 37°
2026-05-06 13:47 37.94500 23.96088 297 ft 26 kts 37°
2026-05-06 13:47 37.94642 23.96222 300 ft 20 kts 38°
2026-05-06 13:48 37.94646 23.96301 299 ft 9 kts 123°
2026-05-06 13:48 37.94610 23.96323 296 ft 7 kts 176°
2026-05-06 13:48 37.94534 23.96313 293 ft 15 kts 186°
2026-05-06 13:48 37.94430 23.96294 287 ft 13 kts 197°
2026-05-06 13:49 37.94352 23.96225 285 ft 21 kts 217°
2026-05-06 13:49 37.94067 23.95953 281 ft 82 kts 217°
2026-05-06 13:49 37.93454 23.95378 288 ft 135 kts 216°
2026-05-06 13:49 37.92591 23.94547 399 ft 170 kts 216°
2026-05-06 13:50 37.91613 23.93636 1053 ft 177 kts 213°
2026-05-06 13:50 37.90557 23.92826 1650 ft 186 kts 207°
2026-05-06 13:50 37.89727 23.92328 1403 ft 210 kts 202°